Location: Gleizolles
(44.4833°N, 6.7667°E)
Time: 15:45:37
(UTC+00:00)

Altair - Pass Details

Date: 04 July 2024
Orbit: 1502 x 1681 km, 47.2° (Epoch: 13 July)

Event Time Altitude Azimuth Distance (km) Brightness Sun altitude
Rises 21:55:55 0° 232° (SW) 4,642 9.9 -18.8°
Reaches altitude 10° 21:58:57 10° 230° (SW) 3,653 9.3 -19.1°
Maximum altitude 22:08:00 68° 150° (SSE) 1,597 7.3 -19.7°
Drops below altitude 10° 22:17:09 10° 70° (ENE) 3,689 9.5 -20.3°
Sets 22:20:14 0° 68° (ENE) 4,690 10.1 -20.5°
